Погода в Гусинеце

Чехия     49°03′14″N   13°59′14″E
темп.,
°C
ветер,
м/с
пор.,
м/с
влажн.,
%
обл.,
%
осадки,
мм/ч
давл.,
гПа
погр.,
м
25 февраля, чт
чт2501:00+7юз22590 0.0 103322
04:00+6юз12590 0.0 103222
07:00+5юз12620 0.0 103222
10:00+12ююз12550 0.0 1031143
13:00+16юз02430 0.0 1030531
16:00+14св01570 0.0 102999
19:00+8юз22720 0.0 103022
22:00+7юз22590 0.0 103122
26 февраля, пт
пт2601:00+6юз23570 0.0 103027
04:00+5юз23690 0.0 103031
07:00+5юз33700 0.0 103037
10:00+10зюз28601 0.0 1030468
13:00+13з355324 0.0 10281117
16:00+12зсз246492 0.0 1027937
19:00+7сз249495 1.3 1030194
22:00+5с3696100 2.7 1031415
27 февраля, сб
сб2701:00+2ссз388887 2.9 1033576
04:000сз23940 0.0 1034122
07:000зсз12921 0.0 103534
10:00+3сз24711 0.0 1035690
13:00+5ссз34631 0.0 1035847
16:00+5ссз35700 0.0 1034830
19:00+1ссз128813 0.0 1036113
22:00+1с139086 0.0 1037350
28 февраля, вс
вс2801:000св129389 0.1 1037286
04:00−1св128886 0.1 1036317
07:00−2всв118391 0.1 1036451
10:00+1всв126543 0.0 1035483
13:00+4всв235621 0.0 1034696
16:00+4всв23600 0.0 1032734
19:000ссв117825 0.0 103421
22:00−1всв119099 0.0 103532
1 марта, пн
пн101:00−2св119299 0.0 103524
04:00−2всв119398 0.0 103428
07:00−3всв119077 0.0 103433
10:00+2всв25540 0.0 1034506
13:00+5в36500 0.0 1033747
16:00+5в36570 0.0 1031676
19:00−1вюв12858 0.0 103340
22:00−2вюв118862 0.0 103421